Time,TemperatureF,DewpointF,PressureIn,WindDirection,WindDirectionDegrees,WindSpeedMPH,WindSpeedGustMPH,Humidity,HourlyPrecipIn,Conditions,Clouds,dailyrainin,SolarRadiationWatts/m^2,SoftwareType,DateUTC
2013-06-21 00:11:00,54.0,-99.9,29.99,NW,313,1.0,10.0,0,0.00,,,0.00,0,weatherlink.com 1.10,2013-06-21 07:11:00,
2013-06-21 00:27:00,53.9,-99.9,29.98,West,273,3.0,8.0,0,0.00,,,0.00,0,weatherlink.com 1.10,2013-06-21 07:27:00,
2013-06-21 00:42:00,54.0,-99.9,29.98,NW,313,6.0,13.0,0,0.00,,,0.00,0,weatherlink.com 1.10,2013-06-21 07:42:00,
2013-06-21 00:57:00,54.1,-99.9,29.98,NW,319,1.0,12.0,0,0.00,,,0.00,0,weatherlink.com 1.10,2013-06-21 07:57:00,
2013-06-21 01:12:00,53.8,-99.9,29.98,North,360,5.0,9.0,0,0.00,,,0.00,0,weatherlink.com 1.10,2013-06-21 08:12:00,
2013-06-21 01:27:00,53.6,-99.9,29.98,NW,316,2.0,6.0,0,0.00,,,0.00,0,weatherlink.com 1.10,2013-06-21 08:27:00,
2013-06-21 01:42:00,53.6,-99.9,29.97,NW,324,2.0,8.0,0,0.00,,,0.00,0,weatherlink.com 1.10,2013-06-21 08:42:00,
2013-06-21 01:57:00,53.5,-99.9,29.97,WNW,292,8.0,10.0,0,0.00,,,0.00,0,weatherlink.com 1.10,2013-06-21 08:57:00,
2013-06-21 02:12:00,53.3,-99.9,29.97,WNW,288,6.0,8.0,0,0.00,,,0.00,0,weatherlink.com 1.10,2013-06-21 09:12:00,
2013-06-21 02:28:00,53.1,-99.9,29.96,WNW,300,0.0,4.0,0,0.00,,,0.00,0,weatherlink.com 1.10,2013-06-21 09:28:00,
2013-06-21 02:43:00,52.9,-99.9,29.96,NNW,331,5.0,6.0,0,0.00,,,0.00,0,weatherlink.com 1.10,2013-06-21 09:43:00,
2013-06-21 02:58:00,52.7,-99.9,29.96,NW,308,1.0,6.0,0,0.00,,,0.00,0,weatherlink.com 1.10,2013-06-21 09:58:00,
2013-06-21 03:13:00,52.4,-99.9,29.96,WNW,297,0.0,5.0,0,0.00,,,0.00,0,weatherlink.com 1.10,2013-06-21 10:13:00,
2013-06-21 03:28:00,52.0,-99.9,29.96,WNW,297,0.0,0.0,0,0.00,,,0.00,0,weatherlink.com 1.10,2013-06-21 10:28:00,
2013-06-21 03:43:00,51.4,-99.9,29.95,WNW,297,0.0,1.0,0,0.00,,,0.00,0,weatherlink.com 1.10,2013-06-21 10:43:00,
2013-06-21 03:58:00,51.5,-99.9,29.96,WNW,296,0.0,0.0,0,0.00,,,0.00,0,weatherlink.com 1.10,2013-06-21 10:58:00,
2013-06-21 04:14:00,51.0,-99.9,29.95,WNW,301,2.0,3.0,0,0.00,,,0.00,0,weatherlink.com 1.10,2013-06-21 11:14:00,
2013-06-21 04:29:00,51.0,-99.9,29.96,ENE,62,0.0,0.0,0,0.00,,,0.00,0,weatherlink.com 1.10,2013-06-21 11:29:00,
2013-06-21 04:44:00,50.4,-99.9,29.96,ENE,62,0.0,1.0,0,0.00,,,0.00,0,weatherlink.com 1.10,2013-06-21 11:44:00,
2013-06-21 04:59:00,51.1,-99.9,29.96,ENE,62,0.0,2.0,0,0.00,,,0.00,0,weatherlink.com 1.10,2013-06-21 11:59:00,
2013-06-21 05:14:00,51.3,-99.9,29.96,NE,34,1.0,6.0,0,0.00,,,0.00,0,weatherlink.com 1.10,2013-06-21 12:14:00,
2013-06-21 05:29:00,51.6,-99.9,29.96,NE,34,0.0,2.0,0,0.00,,,0.00,0,weatherlink.com 1.10,2013-06-21 12:29:00,
2013-06-21 05:45:00,51.7,-99.9,29.96,NE,34,1.0,1.0,0,0.00,,,0.00,0,weatherlink.com 1.10,2013-06-21 12:45:00,
2013-06-21 05:59:00,51.4,-99.9,29.97,NE,34,0.0,1.0,0,0.00,,,0.00,9,weatherlink.com 1.10,2013-06-21 12:59:00,
2013-06-21 06:14:00,51.5,-99.9,29.98,ENE,75,4.0,5.0,0,0.00,,,0.00,16,weatherlink.com 1.10,2013-06-21 13:14:00,
2013-06-21 06:30:00,51.6,-99.9,29.98,ESE,117,2.0,6.0,0,0.00,,,0.00,25,weatherlink.com 1.10,2013-06-21 13:30:00,
2013-06-21 06:45:00,52.5,-99.9,29.97,ESE,121,2.0,5.0,0,0.00,,,0.00,95,weatherlink.com 1.10,2013-06-21 13:45:00,
2013-06-21 07:00:00,53.0,-99.9,29.98,East,90,1.0,3.0,0,0.00,,,0.00,142,weatherlink.com 1.10,2013-06-21 14:00:00,
2013-06-21 07:15:00,53.7,-99.9,29.98,ESE,111,5.0,5.0,0,0.00,,,0.00,188,weatherlink.com 1.10,2013-06-21 14:15:00,
2013-06-21 07:30:00,55.2,-99.9,29.98,SSE,155,0.0,4.0,0,0.00,,,0.00,236,weatherlink.com 1.10,2013-06-21 14:30:00,
2013-06-21 07:45:00,56.3,-99.9,29.98,SSE,150,0.0,1.0,0,0.00,,,0.00,297,weatherlink.com 1.10,2013-06-21 14:45:00,
2013-06-21 08:00:00,56.1,-99.9,29.98,SE,144,2.0,5.0,0,0.00,,,0.00,346,weatherlink.com 1.10,2013-06-21 15:00:00,
2013-06-21 08:15:00,58.3,-99.9,29.99,WSW,258,2.0,3.0,0,0.00,,,0.00,397,weatherlink.com 1.10,2013-06-21 15:15:00,
2013-06-21 08:30:00,57.9,-99.9,29.99,West,269,4.0,5.0,0,0.00,,,0.00,448,weatherlink.com 1.10,2013-06-21 15:30:00,
2013-06-21 08:45:00,58.3,-99.9,29.99,West,270,2.0,5.0,0,0.00,,,0.00,497,weatherlink.com 1.10,2013-06-21 15:45:00,
2013-06-21 09:00:00,58.6,-99.9,29.99,WNW,292,6.0,10.0,0,0.00,,,0.00,545,weatherlink.com 1.10,2013-06-21 16:00:00,
2013-06-21 09:15:00,59.0,-99.9,29.99,NNW,327,6.0,12.0,0,0.00,,,0.00,594,weatherlink.com 1.10,2013-06-21 16:15:00,
2013-06-21 09:30:00,58.6,-99.9,29.99,WNW,292,7.0,10.0,0,0.00,,,0.00,636,weatherlink.com 1.10,2013-06-21 16:30:00,
2013-06-21 09:45:00,58.6,-99.9,29.99,West,269,6.0,12.0,0,0.00,,,0.00,684,weatherlink.com 1.10,2013-06-21 16:45:00,
2013-06-21 10:01:00,60.1,-99.9,29.99,WNW,287,9.0,12.0,0,0.00,,,0.00,728,weatherlink.com 1.10,2013-06-21 17:01:00,
2013-06-21 10:16:00,60.5,-99.9,29.99,NW,315,10.0,16.0,0,0.00,,,0.00,766,weatherlink.com 1.10,2013-06-21 17:16:00,
2013-06-21 10:46:00,59.3,-99.9,29.99,NW,310,2.0,14.0,0,0.00,,,0.00,835,weatherlink.com 1.10,2013-06-21 17:46:00,
2013-06-21 11:01:00,59.1,-99.9,29.99,WNW,282,8.0,16.0,0,0.00,,,0.00,865,weatherlink.com 1.10,2013-06-21 18:01:00,
2013-06-21 11:16:00,60.2,-99.9,30.00,West,269,2.0,20.0,0,0.00,,,0.00,893,weatherlink.com 1.10,2013-06-21 18:16:00,
2013-06-21 11:31:00,59.6,-99.9,30.00,NW,323,5.0,18.0,0,0.00,,,0.00,912,weatherlink.com 1.10,2013-06-21 18:31:00,
2013-06-21 11:46:00,59.3,-99.9,30.00,NW,304,7.0,18.0,0,0.00,,,0.00,932,weatherlink.com 1.10,2013-06-21 18:46:00,
2013-06-21 12:01:00,59.3,-99.9,30.00,WNW,301,7.0,16.0,0,0.00,,,0.00,954,weatherlink.com 1.10,2013-06-21 19:01:00,
2013-06-21 12:16:00,60.3,-99.9,30.00,West,273,10.0,16.0,0,0.00,,,0.00,967,weatherlink.com 1.10,2013-06-21 19:16:00,
2013-06-21 12:31:00,61.3,-99.9,30.00,NW,312,4.0,20.0,0,0.00,,,0.00,979,weatherlink.com 1.10,2013-06-21 19:31:00,
2013-06-21 13:01:00,60.1,-99.9,30.00,WNW,300,11.0,19.0,0,0.00,,,0.00,995,weatherlink.com 1.10,2013-06-21 20:01:00,
2013-06-21 13:17:00,60.7,-99.9,30.00,NW,319,12.0,20.0,0,0.00,,,0.00,997,weatherlink.com 1.10,2013-06-21 20:17:00,
2013-06-21 13:32:00,61.2,-99.9,29.99,NNE,15,5.0,26.0,0,0.00,,,0.00,988,weatherlink.com 1.10,2013-06-21 20:32:00,
2013-06-21 13:47:00,61.3,-99.9,29.99,NW,308,15.0,23.0,0,0.00,,,0.00,977,weatherlink.com 1.10,2013-06-21 20:47:00,
2013-06-21 14:02:00,61.3,-99.9,29.99,WNW,294,14.0,25.0,0,0.00,,,0.00,969,weatherlink.com 1.10,2013-06-21 21:02:00,
2013-06-21 14:17:00,61.3,-99.9,29.98,North,355,9.0,23.0,0,0.00,,,0.00,956,weatherlink.com 1.10,2013-06-21 21:17:00,
2013-06-21 14:32:00,61.2,-99.9,29.98,WNW,302,12.0,21.0,0,0.00,,,0.00,935,weatherlink.com 1.10,2013-06-21 21:32:00,
2013-06-21 14:47:00,61.3,-99.9,29.99,WNW,297,22.0,22.0,0,0.00,,,0.00,912,weatherlink.com 1.10,2013-06-21 21:47:00,
2013-06-21 15:02:00,61.5,-99.9,29.99,West,273,18.0,24.0,0,0.00,,,0.00,881,weatherlink.com 1.10,2013-06-21 22:02:00,
2013-06-21 15:17:00,61.6,-99.9,29.98,West,276,6.0,20.0,0,0.00,,,0.00,870,weatherlink.com 1.10,2013-06-21 22:17:00,
2013-06-21 15:32:00,61.1,-99.9,29.98,WNW,293,14.0,21.0,0,0.00,,,0.00,835,weatherlink.com 1.10,2013-06-21 22:32:00,
2013-06-21 15:47:00,61.2,-99.9,29.98,WNW,291,4.0,25.0,0,0.00,,,0.00,793,weatherlink.com 1.10,2013-06-21 22:47:00,
2013-06-21 16:02:00,62.3,-99.9,29.97,WNW,288,10.0,24.0,0,0.00,,,0.00,770,weatherlink.com 1.10,2013-06-21 23:02:00,
2013-06-21 16:17:00,60.9,-99.9,29.97,West,280,21.0,28.0,0,0.00,,,0.00,724,weatherlink.com 1.10,2013-06-21 23:17:00,
2013-06-21 16:32:00,60.9,-99.9,29.97,WNW,298,16.0,28.0,0,0.00,,,0.00,686,weatherlink.com 1.10,2013-06-21 23:32:00,
2013-06-21 16:48:00,60.3,-99.9,29.96,NW,312,12.0,27.0,0,0.00,,,0.00,645,weatherlink.com 1.10,2013-06-21 23:48:00,
2013-06-21 17:18:00,59.9,-99.9,29.95,WNW,295,8.0,25.0,0,0.00,,,0.00,550,weatherlink.com 1.10,2013-06-22 00:18:00,
2013-06-21 17:33:00,59.5,-99.9,29.95,West,277,7.0,26.0,0,0.00,,,0.00,503,weatherlink.com 1.10,2013-06-22 00:33:00,
2013-06-21 17:48:00,59.0,-99.9,29.94,West,280,12.0,26.0,0,0.00,,,0.00,448,weatherlink.com 1.10,2013-06-22 00:48:00,
2013-06-21 18:03:00,59.2,-99.9,29.94,WSW,257,9.0,24.0,0,0.00,,,0.00,408,weatherlink.com 1.10,2013-06-22 01:03:00,
2013-06-21 18:18:00,59.5,-99.9,29.94,WNW,293,21.0,21.0,0,0.00,,,0.00,359,weatherlink.com 1.10,2013-06-22 01:18:00,
2013-06-21 18:33:00,58.4,-99.9,29.94,North,9,7.0,22.0,0,0.00,,,0.00,306,weatherlink.com 1.10,2013-06-22 01:33:00,
2013-06-21 18:48:00,58.1,-99.9,29.94,WNW,302,14.0,18.0,0,0.00,,,0.00,246,weatherlink.com 1.10,2013-06-22 01:48:00,
2013-06-21 19:03:00,57.9,-99.9,29.94,NW,305,12.0,20.0,0,0.00,,,0.00,206,weatherlink.com 1.10,2013-06-22 02:03:00,
2013-06-21 19:18:00,57.8,-99.9,29.93,NW,321,11.0,18.0,0,0.00,,,0.00,148,weatherlink.com 1.10,2013-06-22 02:18:00,
2013-06-21 19:33:00,57.4,-99.9,29.93,WNW,299,10.0,20.0,0,0.00,,,0.00,98,weatherlink.com 1.10,2013-06-22 02:33:00,
2013-06-21 19:48:00,57.1,-99.9,29.93,West,267,13.0,20.0,0,0.00,,,0.00,58,weatherlink.com 1.10,2013-06-22 02:48:00,
2013-06-21 20:03:00,56.6,-99.9,29.93,WNW,302,6.0,21.0,0,0.00,,,0.00,30,weatherlink.com 1.10,2013-06-22 03:03:00,
2013-06-21 20:19:00,56.0,-99.9,29.94,WSW,237,6.0,13.0,0,0.00,,,0.00,16,weatherlink.com 1.10,2013-06-22 03:19:00,
2013-06-21 20:34:00,55.3,-99.9,29.94,NNW,327,4.0,13.0,0,0.00,,,0.00,7,weatherlink.com 1.10,2013-06-22 03:34:00,
2013-06-21 20:49:00,55.1,-99.9,29.94,West,268,0.0,14.0,0,0.00,,,0.00,0,weatherlink.com 1.10,2013-06-22 03:49:00,
2013-06-21 21:04:00,54.9,-99.9,29.94,WNW,302,0.0,10.0,0,0.00,,,0.00,0,weatherlink.com 1.10,2013-06-22 04:04:00,
2013-06-21 21:19:00,54.6,-99.9,29.94,North,5,0.0,9.0,0,0.00,,,0.00,0,weatherlink.com 1.10,2013-06-22 04:19:00,
2013-06-21 21:34:00,54.3,-99.9,29.95,NNW,344,0.0,10.0,0,0.00,,,0.00,0,weatherlink.com 1.10,2013-06-22 04:34:00,
2013-06-21 21:49:00,54.3,-99.9,29.95,NW,313,1.0,10.0,0,0.00,,,0.00,0,weatherlink.com 1.10,2013-06-22 04:49:00,
2013-06-21 22:04:00,54.0,-99.9,29.95,NNW,342,1.0,7.0,0,0.00,,,0.00,0,weatherlink.com 1.10,2013-06-22 05:04:00,
2013-06-21 22:19:00,54.0,-99.9,29.95,NW,310,0.0,6.0,0,0.00,,,0.00,0,weatherlink.com 1.10,2013-06-22 05:19:00,
2013-06-21 22:34:00,54.0,-99.9,29.95,WNW,290,0.0,10.0,0,0.00,,,0.00,0,weatherlink.com 1.10,2013-06-22 05:34:00,
2013-06-21 22:49:00,53.8,-99.9,29.95,NW,319,0.0,5.0,0,0.00,,,0.00,0,weatherlink.com 1.10,2013-06-22 05:49:00,
2013-06-21 23:04:00,53.5,-99.9,29.95,WNW,294,1.0,6.0,0,0.00,,,0.00,0,weatherlink.com 1.10,2013-06-22 06:04:00,
2013-06-21 23:19:00,53.4,-99.9,29.95,NNW,347,2.0,8.0,0,0.00,,,0.00,0,weatherlink.com 1.10,2013-06-22 06:19:00,
2013-06-21 23:35:00,53.4,-99.9,29.95,NW,311,2.0,3.0,0,0.00,,,0.00,0,weatherlink.com 1.10,2013-06-22 06:35:00,
2013-06-21 23:50:00,53.5,-99.9,29.95,WNW,286,1.0,4.0,0,0.00,,,0.00,0,weatherlink.com 1.10,2013-06-22 06:50:00,